Rogers City, MI

8:43 AM EDT on October 16, 2019 (GMT -0400)
Presque Isle County

Weather History for KPZQ - September, 2019

Change the Weather History Date:

Sunday, September 22, 2019

  Actual Average (KAPN) Record (KAPN)
Temperature  
Mean Temperature 66 °F 55 °F  
Max Temperature 73 °F 66 °F 92 °F (2017)
Min Temperature 58 °F 44 °F 27 °F (1929)
Degree Days  
Heating Degree Days 0 10  
Month to date heating degree days 148  
Since 1 July heating degree days 263  
Cooling Degree Days 0 0  
Month to date cooling degree days 21  
Year to date cooling degree days 287  
Growing Degree Days 16 (Base 50)    
Moisture  
Dew Point 66 °F    
Average Humidity 93    
Maximum Humidity 97    
Minimum Humidity 80    
Precipitation  
Precipitation 0.00 in 0.10 in 1.13 in (1973)
Month to date precipitation 2.15  
Year to date precipitation 20.93  
Sea Level Pressure  
Sea Level Pressure 29.82 in    
Wind  
Wind Speed 9 mph (SW)    
Max Wind Speed 14 mph    
Max Gust Speed 21 mph    
Visibility 8 miles    
Events Rain    
T = Trace of Precipitation, MM = Missing Value Source: NWS Daily Summary

Daily Weather History Graph

Daily Weather History Graph

Search for Another Location

Airport or City:

Astronomy

Sep. 22, 2019 Rise Set
Actual Time 7:22 AM EDT 7:33 PM EDT
Civil Twilight 6:52 AM EDT 8:02 PM EDT
Nautical Twilight 6:17 AM EDT 8:37 PM EDT
Astronomical Twilight 5:42 AM EDT 9:12 PM EDT
Moon No Moon Rise 3:46 PM EDT (9/22)
Length of Visible Light 13h 10m
Length of Day
12h 11m
Last Quarter, 44% of the Moon is Illuminated
Sep 22
Last Quarter
Sep 28
New
Oct 5
First Quarter
Oct 13
Full
Oct 21
Last Quarter

Hourly Weather History & Observations

Time (EDT) Temp. Dew Point Humidity Pressure Visibility Wind Dir Wind Speed Gust Speed Precip Events Conditions
12:19 AM 73.2 °F 66.7 °F 80% 29.94 in 10.0 mi SSW 13.8 mph - N/A   Scattered Clouds
12:37 AM 72.5 °F 67.1 °F 83% 29.94 in 10.0 mi SSW 10.4 mph 17.3 mph N/A   Scattered Clouds
12:55 AM 72.0 °F 67.1 °F 85% 29.94 in 10.0 mi SSW 10.4 mph 17.3 mph N/A   Mostly Cloudy
1:15 AM 72.0 °F 67.1 °F 85% 29.93 in 10.0 mi SSW 11.5 mph - N/A   Overcast
1:16 AM 72.0 °F 67.1 °F 85% 29.92 in 10.0 mi SSW 10.4 mph - N/A   Overcast
1:35 AM 72.0 °F 67.1 °F 85% 29.93 in 10.0 mi SSW 11.5 mph 18.4 mph N/A   Mostly Cloudy
1:40 AM 72.0 °F 67.3 °F 85% 29.93 in 10.0 mi SSW 10.4 mph 16.1 mph N/A   Scattered Clouds
1:58 AM 72.0 °F 67.3 °F 85% 29.93 in 10.0 mi SSW 10.4 mph 16.1 mph N/A   Scattered Clouds
2:16 AM 72.0 °F 67.3 °F 85% 29.93 in 10.0 mi SW 9.2 mph 19.6 mph N/A Rain Light Rain
2:35 AM 71.1 °F 67.5 °F 88% 29.93 in 7.0 mi SSW 10.4 mph 17.3 mph N/A Rain Rain
2:36 AM 71.1 °F 67.5 °F 88% 29.93 in 7.0 mi SSW 9.2 mph 17.3 mph N/A Rain Heavy Rain
2:55 AM 70.2 °F 67.8 °F 92% 29.92 in 5.0 mi SSW 8.1 mph - N/A Rain Rain
3:19 AM 69.8 °F 67.8 °F 93% 29.91 in 10.0 mi SSW 10.4 mph - N/A Rain Light Rain
3:37 AM 69.8 °F 68.0 °F 94% 29.90 in 10.0 mi SSW 9.2 mph - N/A   Scattered Clouds
3:56 AM 70.0 °F 68.0 °F 93% 29.90 in 10.0 mi SSW 8.1 mph - N/A   Mostly Cloudy
4:15 AM 69.8 °F 67.6 °F 93% 29.89 in 10.0 mi South 11.5 mph - N/A   Scattered Clouds
4:35 AM 69.8 °F 67.6 °F 93% 29.89 in 10.0 mi SSW 10.4 mph 16.1 mph N/A   Scattered Clouds
4:58 AM 69.8 °F 67.6 °F 93% 29.89 in 10.0 mi SSW 11.5 mph - N/A Rain Light Rain
5:16 AM 69.8 °F 68.0 °F 94% 29.88 in 10.0 mi SSW 9.2 mph - N/A   Scattered Clouds
5:35 AM 70.0 °F 68.0 °F 93% 29.87 in 10.0 mi SSW 10.4 mph - N/A   Scattered Clouds
5:55 AM 70.0 °F 68.0 °F 93% 29.86 in 10.0 mi SSW 11.5 mph 17.3 mph N/A   Scattered Clouds
6:19 AM 70.2 °F 68.0 °F 93% 29.85 in 10.0 mi SSW 13.8 mph 19.6 mph N/A   Scattered Clouds
6:36 AM 70.3 °F 68.2 °F 93% 29.86 in 10.0 mi SSW 11.5 mph 17.3 mph N/A   Scattered Clouds
6:55 AM 70.3 °F 68.0 °F 92% 29.85 in 10.0 mi SSW 10.4 mph 20.7 mph N/A   Clear
6:56 AM 70.3 °F 68.0 °F 92% 29.85 in 10.0 mi SSW 10.4 mph 20.7 mph N/A   Clear
7:15 AM 70.2 °F 68.0 °F 93% 29.85 in 10.0 mi SSW 11.5 mph 17.3 mph N/A   Scattered Clouds
7:35 AM 70.3 °F 68.0 °F 92% 29.85 in 10.0 mi SSW 9.2 mph 16.1 mph N/A   Scattered Clouds
7:58 AM 70.3 °F 68.0 °F 92% 29.86 in 10.0 mi SW 10.4 mph 18.4 mph N/A   Scattered Clouds
8:16 AM 70.5 °F 68.2 °F 92% 29.86 in 7.0 mi SSW 10.4 mph 18.4 mph N/A Rain Light Rain
8:35 AM 70.2 °F 68.0 °F 93% 29.86 in 10.0 mi SSW 8.1 mph - N/A   Scattered Clouds
8:55 AM 70.2 °F 68.2 °F 93% 29.85 in 5.0 mi SSW 8.1 mph - N/A Rain Rain
9:19 AM 70.3 °F 68.5 °F 94% 29.85 in 10.0 mi SSW 8.1 mph - N/A   Mostly Cloudy
9:37 AM 70.7 °F 68.9 °F 94% 29.85 in 10.0 mi SSW 8.1 mph - N/A   Mostly Cloudy
9:55 AM 71.1 °F 69.1 °F 93% 29.84 in 7.0 mi SSW 6.9 mph - N/A Rain Light Rain
10:15 AM 71.2 °F 69.1 °F 93% 29.84 in 10.0 mi SSW 4.6 mph - N/A Rain Light Rain
10:35 AM 71.6 °F 69.4 °F 93% 29.84 in 10.0 mi SW 8.1 mph - N/A   Overcast
10:58 AM 71.8 °F 69.3 °F 92% 29.83 in 10.0 mi SSW 5.8 mph - N/A   Overcast
11:16 AM 72.0 °F 69.3 °F 91% 29.83 in 10.0 mi SSW 8.1 mph - N/A Rain Light Rain
11:35 AM 71.8 °F 69.3 °F 92% 29.83 in 10.0 mi SSW 9.2 mph - N/A Rain Light Rain
11:55 AM 71.6 °F 68.9 °F 91% 29.82 in 5.0 mi South 10.4 mph 16.1 mph N/A Rain Heavy Rain
12:19 PM 71.1 °F 68.9 °F 93% 29.82 in 5.0 mi SSW 8.1 mph - N/A Rain Light Rain
12:37 PM 71.2 °F 69.1 °F 93% 29.81 in 7.0 mi SSW 8.1 mph - N/A Rain Light Rain
12:55 PM 71.1 °F 69.1 °F 93% 29.80 in 5.0 mi SSW 9.2 mph - N/A Rain Light Rain
12:56 PM 71.1 °F 69.1 °F 93% 29.80 in 5.0 mi South 9.2 mph - N/A Rain Light Rain
1:15 PM 71.6 °F 69.8 °F 94% 29.80 in 7.0 mi SSW 9.2 mph - N/A Rain Light Rain
1:35 PM 72.0 °F 69.8 °F 93% 29.78 in 5.0 mi SSW 9.2 mph - N/A Rain Light Rain
1:58 PM 71.8 °F 69.8 °F 93% 29.77 in 7.0 mi SSW 9.2 mph - N/A Rain Rain
2:16 PM 71.8 °F 69.8 °F 93% 29.77 in 7.0 mi SSW 8.1 mph - N/A Rain Rain
2:35 PM 71.1 °F 69.3 °F 94% 29.76 in 2.0 mi South 6.9 mph - N/A Rain Heavy Rain
2:55 PM 70.7 °F 69.1 °F 95% 29.75 in 1.8 mi SSW 4.6 mph - N/A Rain Heavy Rain
3:19 PM 70.7 °F 68.9 °F 94% 29.75 in 3.0 mi WSW 8.1 mph - N/A Rain Heavy Rain
3:37 PM 70.7 °F 68.9 °F 94% 29.75 in 5.0 mi WSW 5.8 mph - N/A Rain Rain
3:55 PM 71.1 °F 69.4 °F 95% 29.72 in 10.0 mi SW 5.8 mph - N/A Rain Light Rain
4:15 PM 70.2 °F 68.5 °F 95% 29.72 in 5.0 mi WSW 3.5 mph - N/A Rain Heavy Rain
4:35 PM 69.6 °F 68.0 °F 95% 29.74 in 2.5 mi WSW 3.5 mph - N/A Rain Heavy Rain
4:40 PM 69.3 °F 67.6 °F 95% 29.74 in 1.5 mi SW 6.9 mph - N/A Rain Heavy Rain
4:58 PM 68.4 °F 66.7 °F 95% 29.74 in 4.0 mi WSW 4.6 mph - N/A Rain Rain
5:16 PM 68.0 °F 66.6 °F 95% 29.75 in 3.0 mi WSW 9.2 mph - N/A Rain Heavy Rain
5:35 PM 67.8 °F 66.4 °F 95% 29.74 in 5.0 mi SW 6.9 mph - N/A Rain Rain
5:36 PM 67.8 °F 66.2 °F 95% 29.74 in 5.0 mi SW 6.9 mph - N/A Rain Rain
5:55 PM 67.6 °F 66.2 °F 95% 29.74 in 10.0 mi SW 6.9 mph - N/A   Light Drizzle
5:56 PM 67.6 °F 66.2 °F 95% 29.74 in 10.0 mi SW 6.9 mph - N/A   Light Drizzle
6:19 PM 67.3 °F 65.8 °F 95% 29.74 in 10.0 mi SSW 6.9 mph - N/A   Drizzle
6:37 PM 67.1 °F 65.7 °F 95% 29.74 in 10.0 mi SW 4.6 mph - N/A   Drizzle
6:55 PM 67.1 °F 65.7 °F 95% 29.74 in 10.0 mi SSW 3.5 mph - N/A   Overcast
6:56 PM 67.1 °F 65.7 °F 95% 29.74 in 10.0 mi SSW 4.6 mph - N/A   Overcast
7:15 PM 67.1 °F 65.5 °F 95% 29.74 in 10.0 mi SSW 4.6 mph - N/A   Overcast
7:16 PM 67.1 °F 65.5 °F 95% 29.74 in 10.0 mi SSW 5.8 mph - N/A   Overcast
7:35 PM 67.1 °F 65.5 °F 95% 29.74 in 10.0 mi SW 6.9 mph - N/A   Overcast
7:58 PM 67.5 °F 66.2 °F 96% 29.74 in 7.0 mi SW 6.9 mph - N/A   Light Drizzle
8:15 PM 67.6 °F 66.2 °F 95% 29.75 in 10.0 mi WSW 5.8 mph - N/A   Overcast
8:35 PM 63.5 °F 61.2 °F 92% 29.77 in 7.0 mi NNW 12.7 mph 20.7 mph N/A Rain Rain
8:55 PM 60.4 °F 59.2 °F 96% 29.78 in 3.0 mi NNW 8.1 mph - N/A Rain Heavy Rain
9:19 PM 59.9 °F 59.0 °F 97% 29.79 in 5.0 mi NW 6.9 mph - N/A Rain Light Rain
9:37 PM 59.7 °F 58.5 °F 96% 29.79 in 7.0 mi NW 3.5 mph - N/A Rain Light Rain
9:55 PM 59.5 °F 58.5 °F 96% 29.78 in 5.0 mi NW 4.6 mph - N/A Rain Rain
9:56 PM 59.5 °F 58.5 °F 96% 29.79 in 5.0 mi WNW 4.6 mph - N/A Rain Rain
10:15 PM 59.5 °F 58.5 °F 96% 29.78 in 10.0 mi WNW 3.5 mph - N/A   Overcast
10:35 PM 59.5 °F 58.3 °F 96% 29.78 in 10.0 mi Calm Calm - N/A   Overcast
10:58 PM 59.4 °F 58.1 °F 96% 29.79 in 10.0 mi NW 6.9 mph - N/A   Overcast
11:16 PM 59.0 °F 57.7 °F 96% 29.80 in 3.0 mi NW 9.2 mph - N/A   Heavy Drizzle
11:35 PM 58.5 °F 57.4 °F 96% 29.80 in 3.0 mi NW 6.9 mph - N/A   Heavy Drizzle
11:55 PM 58.5 °F 57.6 °F 97% 29.79 in 7.0 mi NNW 4.6 mph - N/A   Overcast